Location: ???????
(55.2903°N, 39.1554°E)
Time: 12:46:19
(UTC+00:00)

Cosmos 2322 Rocket - Pass Details

Date: 14 April 2024
Orbit: 833 x 849 km, 71.0° (Epoch: 23 May)

Event Time Altitude Azimuth Distance (km) Brightness Sun altitude
Exits shadow 00:19:40 17° 261° (W) 1,979 3.7 -15.5°
Maximum altitude 00:23:25 37° 320° (NW) 1,282 3.2 -15.2°
Drops below altitude 10° 00:28:37 10° 27° (NNE) 2,456 5.8 -14.6°
Sets 00:31:15 0° 36° (NE) 3,393 7.1 -14.3°
